sat.trackr.live / text

‹ back to catalog

STARLINK-6243

NORAD 57080 · 2023-088AJ

PAYLOAD ACTIVE UNKNOWN

§ Identity

Operator
Country
US
Launch date
2023-06-22
Launch site
AFWTR
Launch vehicle
Mass (kg)
RCS (m²)

Purposes: comms

External: N2YO · Heavens-Above · Gunter

§ Orbital elements

Epoch: 2026-05-25T00:58:46.062624Z

Period
94.27 min
Inclination
43.0058°
Eccentricity
0.0001031
Mean motion
15.27575993 rev/d
Perigee alt
482.4 km
Apogee alt
483.8 km
Semi-major
6,861.2 km
B*
1.3801e-5
RAAN
25.2462°
Arg perigee
266.5006°
Mean anomaly
93.5728°
Rev number
16,200

§ Raw data

STARLINK-62431 57080U 23088AJ  26145.04081091  .00000118  00000+0  13801-4 0  99982 57080  43.0058  25.2462 0001031 266.5006  93.5728 15.27575993162009

JSON: /api/v1/satellites/57080 · /tle

For live sub-satellite position, see the globe view (requires WebGL).

§ Visibility from observer

Set your observer location to see the next 7 days of passes ≥ 10°. The values pass through the URL so the page stays shareable.

No JS? Fill the form by hand. The geolocation button needs JavaScript.